• In France
  • List of Countries
  • For 7 days
  • Water Temperature
  • Satellite Maps
  • Weather Map
  • Weather Widgets
  • user-avatar
    Login

    Hourly Weather Bucaramanga

    Today, 20 February, Tuesday

    Time Temperature Precipitation Wind Pressure Humidity
    00:00 +23°C° 0 mm 1 mps 673 mmHg 68%
    01:00 +22°C° 0 mm 1 mps 673 mmHg 69%
    02:00 +22°C° 0 mm 1 mps 672 mmHg 69%
    03:00 +22°C° 0 mm 1 mps 672 mmHg 70%
    04:00 +21°C° 0 mm 1 mps 672 mmHg 71%
    05:00 +21°C° 0 mm 1 mps 673 mmHg 69%
    06:00 +22°C° 0 mm 1 mps 673 mmHg 67%
    07:00 +22°C° 0 mm 1 mps 673 mmHg 65%
    08:00 +24°C° 0 mm 1 mps 674 mmHg 57%
    09:00 +27°C° 0 mm 1 mps 675 mmHg 49%
    10:00 +30°C° 0 mm 1 mps 676 mmHg 41%
    11:00 +31°C° 0 mm 2 mps 675 mmHg 40%
    12:00 +32°C° 0 mm 2 mps 675 mmHg 38%
    13:00 +32°C° 0 mm 2 mps 674 mmHg 36%
    14:00 +32°C° 0 mm 2 mps 674 mmHg 37%
    15:00 +31°C° 0 mm 2 mps 673 mmHg 37%
    16:00 +31°C° 0 mm 2 mps 673 mmHg 38%
    17:00 +29°C° 0 mm 2 mps 672 mmHg 43%
    18:00 +26°C° 0 mm 1 mps 672 mmHg 49%
    19:00 +24°C° 0 mm 1 mps 672 mmHg 55%
    20:00 +24°C° 0 mm 1 mps 673 mmHg 53%
    21:00 +23°C° 0 mm 1 mps 673 mmHg 50%
    22:00 +22°C° 0 mm 1 mps 674 mmHg 48%
    23:00 +22°C° 0 mm 1 mps 673 mmHg 46%

    Tomorrow, 21 February, Wednesday

    Time Temperature Precipitation Wind Pressure Humidity
    00:00 +22°C° 0 mm 1 mps 673 mmHg 45%
    01:00 +21°C° 0 mm 1 mps 673 mmHg 43%
    02:00 +21°C° 0 mm 1 mps 673 mmHg 43%
    03:00 +21°C° 0 mm 1 mps 673 mmHg 42%
    04:00 +20°C° 0 mm 1 mps 673 mmHg 42%
    05:00 +21°C° 0 mm 1 mps 673 mmHg 42%
    06:00 +21°C° 0 mm 1 mps 673 mmHg 41%
    07:00 +21°C° 0 mm 1 mps 674 mmHg 41%
    08:00 +24°C° 0 mm 1 mps 675 mmHg 39%
    09:00 +27°C° 0 mm 1 mps 676 mmHg 37%
    10:00 +30°C° 0 mm 1 mps 677 mmHg 35%
    11:00 +31°C° 0 mm 2 mps 676 mmHg 35%
    12:00 +31°C° 0 mm 2 mps 675 mmHg 34%
    13:00 +32°C° 0 mm 2 mps 675 mmHg 34%
    14:00 +32°C° 0 mm 2 mps 674 mmHg 37%
    15:00 +31°C° 0 mm 2 mps 673 mmHg 39%
    16:00 +30°C° 0 mm 2 mps 672 mmHg 42%
    17:00 +28°C° 0 mm 1 mps 672 mmHg 49%
    18:00 +26°C° 0 mm 1 mps 672 mmHg 55%
    19:00 +24°C° 0 mm 1 mps 672 mmHg 62%
    20:00 +23°C° 0 mm 1 mps 673 mmHg 63%
    21:00 +23°C° 0 mm 1 mps 673 mmHg 65%
    22:00 +22°C° 0 mm 1 mps 674 mmHg 67%
    23:00 +22°C° 0 mm 1 mps 674 mmHg 67%

    Day after tomorrow, 22 February, Thursday

    Time Temperature Precipitation Wind Pressure Humidity
    00:00 +22°C° 0 mm 1 mps 673 mmHg 68%
    01:00 +21°C° 0 mm 1 mps 673 mmHg 69%
    02:00 +21°C° 0 mm 1 mps 673 mmHg 69%
    03:00 +21°C° 0 mm 1 mps 673 mmHg 69%
    04:00 +20°C° 0 mm 1 mps 672 mmHg 69%
    05:00 +21°C° 0 mm 1 mps 673 mmHg 68%
    06:00 +21°C° 0 mm 1 mps 674 mmHg 66%
    07:00 +21°C° 0 mm 1 mps 674 mmHg 65%
    08:00 +24°C° 0 mm 1 mps 675 mmHg 57%
    09:00 +27°C° 0 mm 1 mps 676 mmHg 49%
    10:00 +29°C° 0 mm 1 mps 677 mmHg 40%
    11:00 +30°C° 0 mm 2 mps 676 mmHg 41%
    12:00 +30°C° 0 mm 2 mps 675 mmHg 41%
    13:00 +30°C° 0 mm 2 mps 674 mmHg 41%
    14:00 +30°C° 0.1 mm 2 mps 674 mmHg 42%
    15:00 +30°C° 0.1 mm 2 mps 673 mmHg 42%
    16:00 +29°C° 0.1 mm 2 mps 672 mmHg 42%
    17:00 +27°C° 0 mm 1 mps 672 mmHg 48%
    18:00 +25°C° 0 mm 1 mps 672 mmHg 55%
    19:00 +23°C° 0 mm 1 mps 672 mmHg 61%
    20:00 +23°C° 0 mm 1 mps 673 mmHg 62%
    21:00 +22°C° 0 mm 1 mps 673 mmHg 63%
    22:00 +22°C° 0 mm 1 mps 674 mmHg 64%
    23:00 +21°C° 0 mm 1 mps 673 mmHg 65%

    23 February, Friday

    Time Temperature Precipitation Wind Pressure Humidity
    00:00 +21°C° 0 mm 1 mps 673 mmHg 65%
    01:00 +21°C° 0 mm 1 mps 673 mmHg 66%
    02:00 +20°C° 0 mm 1 mps 672 mmHg 66%
    03:00 +20°C° 0 mm 1 mps 672 mmHg 66%
    04:00 +20°C° 0 mm 1 mps 672 mmHg 66%
    05:00 +20°C° 0 mm 1 mps 673 mmHg 64%
    06:00 +20°C° 0 mm 1 mps 673 mmHg 63%
    07:00 +21°C° 0 mm 1 mps 674 mmHg 61%
    08:00 +24°C° 0 mm 1 mps 675 mmHg 52%
    09:00 +27°C° 0 mm 1 mps 675 mmHg 43%
    10:00 +29°C° 0 mm 1 mps 676 mmHg 33%
    11:00 +30°C° 0 mm 2 mps 675 mmHg 32%
    12:00 +31°C° 0 mm 2 mps 674 mmHg 32%
    13:00 +31°C° 0 mm 2 mps 674 mmHg 31%
    14:00 +31°C° 0 mm 2 mps 673 mmHg 32%
    15:00 +30°C° 0 mm 2 mps 672 mmHg 33%
    16:00 +30°C° 0 mm 2 mps 672 mmHg 35%
    17:00 +28°C° 0 mm 1 mps 672 mmHg 41%
    18:00 +25°C° 0 mm 1 mps 671 mmHg 47%
    19:00 +23°C° 0 mm 1 mps 671 mmHg 54%
    20:00 +22°C° 0 mm 1 mps 672 mmHg 54%
    21:00 +22°C° 0 mm 1 mps 672 mmHg 55%
    22:00 +22°C° 0 mm 1 mps 673 mmHg 55%
    23:00 +21°C° 0 mm 1 mps 672 mmHg 55%

    24 February, Saturday

    Time Temperature Precipitation Wind Pressure Humidity
    00:00 +21°C° 0 mm 1 mps 672 mmHg 55%
    01:00 +21°C° 0 mm 1 mps 672 mmHg 55%
    02:00 +20°C° 0 mm 1 mps 672 mmHg 55%
    03:00 +20°C° 0 mm 1 mps 672 mmHg 55%
    04:00 +20°C° 0 mm 1 mps 671 mmHg 55%
    05:00 +20°C° 0 mm 1 mps 672 mmHg 54%
    06:00 +21°C° 0 mm 1 mps 673 mmHg 54%
    07:00 +21°C° 0 mm 1 mps 673 mmHg 53%
    08:00 +24°C° 0 mm 1 mps 674 mmHg 47%
    09:00 +26°C° 0 mm 1 mps 674 mmHg 41%
    10:00 +28°C° 0 mm 1 mps 675 mmHg 35%
    11:00 +29°C° 0 mm 1 mps 674 mmHg 34%
    12:00 +30°C° 0 mm 1 mps 674 mmHg 33%
    13:00 +31°C° 0 mm 2 mps 673 mmHg 32%
    14:00 +30°C° 0.1 mm 2 mps 672 mmHg 33%
    15:00 +30°C° 0.1 mm 2 mps 672 mmHg 35%
    16:00 +30°C° 0.1 mm 2 mps 671 mmHg 36%
    17:00 +27°C° 0.1 mm 2 mps 671 mmHg 42%
    18:00 +25°C° 0.1 mm 1 mps 671 mmHg 48%
    19:00 +23°C° 0.1 mm 1 mps 671 mmHg 54%
    20:00 +22°C° 0 mm 1 mps 672 mmHg 54%
    21:00 +22°C° 0 mm 1 mps 672 mmHg 55%
    22:00 +22°C° 0 mm 1 mps 673 mmHg 55%
    23:00 +21°C° 0 mm 1 mps 673 mmHg 56%

    25 February, Sunday

    Time Temperature Precipitation Wind Pressure Humidity
    00:00 +21°C° 0 mm 1 mps 672 mmHg 57%
    01:00 +21°C° 0 mm 1 mps 672 mmHg 58%
    02:00 +21°C° 0 mm 1 mps 672 mmHg 57%
    03:00 +20°C° 0 mm 1 mps 672 mmHg 57%
    04:00 +20°C° 0 mm 1 mps 672 mmHg 56%
    05:00 +21°C° 0.1 mm 1 mps 673 mmHg 56%
    06:00 +21°C° 0.1 mm 1 mps 673 mmHg 56%
    07:00 +21°C° 0.1 mm 1 mps 674 mmHg 55%
    08:00 +24°C° 0.1 mm 1 mps 674 mmHg 50%
    09:00 +26°C° 0.1 mm 1 mps 675 mmHg 44%
    10:00 +28°C° 0.1 mm 1 mps 676 mmHg 39%
    11:00 +29°C° 0 mm 1 mps 675 mmHg 38%
    12:00 +30°C° 0 mm 2 mps 674 mmHg 36%
    13:00 +31°C° 0 mm 2 mps 674 mmHg 35%
    14:00 +31°C° 0.1 mm 2 mps 673 mmHg 37%
    15:00 +30°C° 0.1 mm 2 mps 672 mmHg 39%
    16:00 +30°C° 0.1 mm 2 mps 672 mmHg 42%
    17:00 +27°C° 0.1 mm 1 mps 672 mmHg 48%
    18:00 +25°C° 0.1 mm 1 mps 672 mmHg 55%
    19:00 +23°C° 0.1 mm 1 mps 672 mmHg 62%
    20:00 +23°C° 0.1 mm 1 mps 672 mmHg 63%
    21:00 +22°C° 0.1 mm 1 mps 673 mmHg 64%
    22:00 +22°C° 0.1 mm 1 mps 673 mmHg 64%
    23:00 +21°C° 0.1 mm 1 mps 673 mmHg 65%
    Show more